Regional Weather Roundup
Issued by NWS State College, PA

Home | Current Version | Previous Version | Graphics & Text | Print | Product List | Glossary On
Versions: 1 2 3 4 5 6 7 8 9 10 11 12 13 14 15 16 17 18 19 20 21 22 23 24 25 26 27 28 29 30 31 32 33 34 35 36 37 38 39 40 41 42 43 44 45 46 47 48 49 50
000
ASUS41 KCTP 050010
RWRCTP

REGIONAL WEATHER ROUNDUP
NATIONAL WEATHER SERVICE STATE COLLEGE PA
800 PM EDT SAT JUL 04 2015

Note: "fair" indicates few or no clouds below 12,000 feet with no
significant weather and/or obstructions to visibility.

* = STATION THAT DOES NOT REPORT PRECIPITATION /E.G. RAIN...SNOW...ETC/
    THUNDER OR FOG.

PAZ002>004-007>009-013>016-020>023-029>032-050100-
WESTERN PENNSYLVANIA

CITY           SKY/WX    TMP DP  RH WIND       PRES   REMARKS
ERIE           CLEAR     70  56  61 W6        30.01R
MEADVILLE      CLEAR     67  50  54 N3        30.03R
FRANKLIN*      CLEAR     68  48  49 NW3       30.04R
NEW CASTLE     FAIR      73  56  55 CALM      30.02R
BEAVER COUNTY  NOT AVBL
BUTLER*        CLEAR     72  54  53 CALM      30.02R
PITTSBURGH INT PTCLDY    77  54  44 N6        30.00R
PITTSBURGH     CLEAR     74  52  46 NW6       30.00R
INDIANA*       CLEAR     73  63  68 NW5       30.03R
LATROBE        CLEAR     73  61  64 CALM      30.00R
WASHINGTON CO* NOT AVBL
$$

PAZ004>006-010>012-017>019-024>028-033>037-041-042-045-046-049>053-050100-
CENTRAL PENNSYLVANIA

CITY           SKY/WX    TMP DP  RH WIND       PRES   REMARKS
BRADFORD       CLEAR     67  54  63 NW8       30.03R
DUBOIS         PTCLDY    73  57  57 NW7       30.00R
CLEARFIELD     MOCLDY    70  67  90 N5        29.99R
JOHNSTOWN      PTCLDY    70  61  73 NW9       30.03R
ALTOONA        MOCLDY    69  64  84 SE3       30.00R
STATE COLLEGE  PTCLDY    68  63  83 CALM      29.99S
WILLIAMSPORT   CLOUDY    68  62  81 E7        29.98R
SELINSGROVE    CLOUDY    68  64  87 CALM      30.00R
FT INDIANTOWN  CLOUDY    68  64  86 N3        29.99R
CAPITAL CITY   CLOUDY    69  62  78 CALM      29.99R
HARRISBURG     CLOUDY    69  64  84 CALM      29.98R FOG
YORK           CLOUDY    69  66  90 N3        29.99R FOG
$$

PAZ038>040-043-044-047-048-054-055-060>062-067>071-050100-
EASTERN PENNSYLVANIA

CITY           SKY/WX    TMP DP  RH WIND       PRES   REMARKS
SCRANTON       CLOUDY    67  62  84 CALM      30.00R
MOUNT POCONO   PTCLDY    62  57  83 CALM      30.02S
ALLENTOWN      CLOUDY    69  63  81 CALM      29.99R
QUAKERTOWN*    MOCLDY    70  59  68 CALM      30.00R
READING        CLOUDY    68  64  87 CALM      29.98R
LANCASTER      CLOUDY    66  64  93 E5        29.99R
COATESVILLE    CLOUDY    68  66  94 NE3       30.00R
POTTSTOWN      CLOUDY    66  65  96 CALM      30.01R
BLUE BELL      CLOUDY    68  64  88 N3        29.98R
DOYLESTOWN     CLOUDY    68  60  75 CALM      29.99R
WILLOW GROVE   NOT AVBL
NORTH PHILA    CLOUDY    73  53  49 E3        29.99R
PHILADELPHIA   CLOUDY    72  62  71 NE8       29.98R
$$



USA.gov is the U.S. government's official web portal to all federal, state and local government web resources and services.